Time,TemperatureF,DewpointF,PressureIn,WindDirection,WindDirectionDegrees,WindSpeedMPH,WindSpeedGustMPH,Humidity,HourlyPrecipIn,Conditions,Clouds,dailyrainin,SolarRadiationWatts/m^2,SoftwareType,DateUTC
2013-05-11 00:00:00,45.0,43.0,-100.00,NNW,337,4.0,-999.0,91,-99.99,,,-99.99,1.160000,,2013-05-11 04:00:00,
2013-05-11 00:43:00,45.0,43.0,-100.00,NNW,337,4.0,-999.0,91,-99.99,,,-99.99,1.160000,,2013-05-11 04:43:00,
2013-05-11 00:52:00,45.0,43.0,-100.00,NNW,337,4.0,-999.0,91,-99.99,,,-99.99,1.160000,,2013-05-11 04:52:00,
2013-05-11 01:00:00,45.0,43.0,-100.00,NW,315,3.0,-999.0,92,-99.99,,,-99.99,1.160000,,2013-05-11 05:00:00,
2013-05-11 01:42:00,45.0,43.0,-100.00,NW,315,3.0,-999.0,92,-99.99,,,-99.99,1.160000,,2013-05-11 05:42:00,
2013-05-11 01:52:00,45.0,43.0,-100.00,NW,315,3.0,-999.0,92,-99.99,,,-99.99,1.160000,,2013-05-11 05:52:00,
2013-05-11 02:00:00,45.0,43.0,-100.00,NW,315,3.0,-999.0,92,-99.99,,,-99.99,1.160000,,2013-05-11 06:00:00,
2013-05-11 02:42:00,45.0,43.0,-100.00,NW,315,3.0,-999.0,92,-99.99,,,-99.99,1.160000,,2013-05-11 06:42:00,
2013-05-11 02:53:00,45.0,43.0,-100.00,NW,315,3.0,-999.0,92,-99.99,,,-99.99,1.160000,,2013-05-11 06:53:00,
2013-05-11 03:00:00,45.0,43.0,-100.00,NW,315,3.0,-999.0,91,-99.99,,,-99.99,1.160000,,2013-05-11 07:00:00,
2013-05-11 03:42:00,45.0,43.0,-100.00,NW,315,3.0,-999.0,91,-99.99,,,-99.99,1.160000,,2013-05-11 07:42:00,
2013-05-11 03:52:00,45.0,43.0,-100.00,NW,315,3.0,-999.0,91,-99.99,,,-99.99,1.160000,,2013-05-11 07:52:00,
2013-05-11 04:00:00,45.0,43.0,-100.00,NW,315,3.0,-999.0,91,-99.99,,,-99.99,1.160000,,2013-05-11 08:00:00,
2013-05-11 04:43:00,45.0,43.0,-100.00,NW,315,3.0,-999.0,91,-99.99,,,-99.99,1.160000,,2013-05-11 08:43:00,
2013-05-11 04:52:00,45.0,43.0,-100.00,NW,315,3.0,-999.0,91,-99.99,,,-99.99,1.160000,,2013-05-11 08:52:00,
2013-05-11 06:00:00,43.0,41.0,-100.00,West,270,3.0,-999.0,92,-99.99,,,-99.99,1.160000,,2013-05-11 10:00:00,
2013-05-11 06:42:00,43.0,41.0,-100.00,West,270,3.0,-999.0,92,-99.99,,,-99.99,1.160000,,2013-05-11 10:42:00,
2013-05-11 06:53:00,43.0,41.0,-100.00,West,270,3.0,-999.0,92,-99.99,,,-99.99,1.160000,,2013-05-11 10:53:00,
2013-05-11 07:00:00,42.0,40.0,-100.00,West,270,2.0,-999.0,92,-99.99,,,-99.99,3.480000,,2013-05-11 11:00:00,
2013-05-11 07:42:00,42.0,40.0,-100.00,West,270,2.0,-999.0,92,-99.99,,,-99.99,3.480000,,2013-05-11 11:42:00,
2013-05-11 07:52:00,42.0,40.0,-100.00,West,270,2.0,-999.0,92,-99.99,,,-99.99,3.480000,,2013-05-11 11:52:00,
2013-05-11 08:00:00,42.0,40.0,-100.00,WNW,292,3.0,-999.0,93,-99.99,,,-99.99,24.360001,,2013-05-11 12:00:00,
2013-05-11 08:42:00,42.0,40.0,-100.00,WNW,292,3.0,-999.0,93,-99.99,,,-99.99,24.360001,,2013-05-11 12:42:00,
2013-05-11 08:52:00,42.0,40.0,-100.00,WNW,292,3.0,-999.0,93,-99.99,,,-99.99,24.360001,,2013-05-11 12:52:00,
2013-05-11 09:00:00,42.0,41.0,-100.00,WNW,292,4.0,-999.0,93,-99.99,,,-99.99,73.080002,,2013-05-11 13:00:00,
2013-05-11 09:42:00,42.0,41.0,-100.00,WNW,292,4.0,-999.0,93,-99.99,,,-99.99,73.080002,,2013-05-11 13:42:00,
2013-05-11 09:52:00,42.0,41.0,-100.00,WNW,292,4.0,-999.0,93,-99.99,,,-99.99,73.080002,,2013-05-11 13:52:00,
2013-05-11 10:00:00,43.0,41.0,-100.00,West,270,3.0,-999.0,92,-99.99,,,-99.99,97.440002,,2013-05-11 14:00:00,
2013-05-11 10:42:00,43.0,41.0,-100.00,West,270,3.0,-999.0,92,-99.99,,,-99.99,97.440002,,2013-05-11 14:42:00,
2013-05-11 10:52:00,43.0,41.0,-100.00,West,270,3.0,-999.0,92,-99.99,,,-99.99,97.440002,,2013-05-11 14:52:00,
2013-05-11 12:00:00,46.0,43.0,-100.00,SW,225,5.0,-999.0,89,-99.99,,,-99.99,196.039993,,2013-05-11 16:00:00,
2013-05-11 12:42:00,46.0,43.0,-100.00,SW,225,5.0,-999.0,89,-99.99,,,-99.99,196.039993,,2013-05-11 16:42:00,
2013-05-11 12:53:00,46.0,43.0,-100.00,SW,225,5.0,-999.0,89,-99.99,,,-99.99,196.039993,,2013-05-11 16:53:00,
2013-05-11 13:00:00,47.0,43.0,-100.00,SW,225,7.0,-999.0,82,-99.99,,,-99.99,238.960007,,2013-05-11 17:00:00,
2013-05-11 13:42:00,47.0,43.0,-100.00,SW,225,7.0,-999.0,82,-99.99,,,-99.99,238.960007,,2013-05-11 17:42:00,
2013-05-11 13:52:00,47.0,43.0,-100.00,SW,225,7.0,-999.0,82,-99.99,,,-99.99,238.960007,,2013-05-11 17:52:00,
2013-05-11 14:00:00,52.0,44.0,-100.00,SSW,202,6.0,-999.0,74,-99.99,,,-99.99,300.440002,,2013-05-11 18:00:00,
2013-05-11 14:42:00,52.0,44.0,-100.00,SSW,202,6.0,-999.0,74,-99.99,,,-99.99,300.440002,,2013-05-11 18:42:00,
2013-05-11 14:52:00,52.0,44.0,-100.00,SSW,202,6.0,-999.0,74,-99.99,,,-99.99,300.440002,,2013-05-11 18:52:00,
2013-05-11 15:00:00,51.0,45.0,-100.00,SW,225,5.0,-999.0,78,-99.99,,,-99.99,74.239998,,2013-05-11 19:00:00,
2013-05-11 15:42:00,51.0,45.0,-100.00,SW,225,5.0,-999.0,78,-99.99,,,-99.99,74.239998,,2013-05-11 19:42:00,
2013-05-11 15:53:00,51.0,45.0,-100.00,SW,225,5.0,-999.0,78,-99.99,,,-99.99,74.239998,,2013-05-11 19:53:00,
2013-05-11 16:00:00,47.0,42.0,-100.00,WNW,292,12.0,-999.0,82,-99.99,,,-99.99,133.399994,,2013-05-11 20:00:00,
2013-05-11 16:42:00,47.0,42.0,-100.00,WNW,292,12.0,-999.0,82,-99.99,,,-99.99,133.399994,,2013-05-11 20:42:00,
2013-05-11 16:52:00,47.0,42.0,-100.00,WNW,292,12.0,-999.0,82,-99.99,,,-99.99,133.399994,,2013-05-11 20:52:00,
2013-05-11 17:00:00,42.0,36.0,-100.00,NNW,337,13.0,-999.0,77,-99.99,,,-99.99,236.639999,,2013-05-11 21:00:00,
2013-05-11 17:43:00,42.0,36.0,-100.00,NNW,337,13.0,-999.0,77,-99.99,,,-99.99,236.639999,,2013-05-11 21:43:00,
2013-05-11 17:53:00,42.0,36.0,-100.00,NNW,337,13.0,-999.0,77,-99.99,,,-99.99,236.639999,,2013-05-11 21:53:00,
2013-05-11 18:00:00,46.0,35.0,-100.00,NNW,337,13.0,-999.0,65,-99.99,,,-99.99,441.959991,,2013-05-11 22:00:00,
2013-05-11 18:43:00,46.0,35.0,-100.00,NNW,337,13.0,-999.0,65,-99.99,,,-99.99,441.959991,,2013-05-11 22:43:00,
2013-05-11 18:52:00,46.0,35.0,-100.00,NNW,337,13.0,-999.0,65,-99.99,,,-99.99,441.959991,,2013-05-11 22:52:00,
2013-05-11 19:00:00,47.0,33.0,-100.00,NNW,337,12.0,-999.0,58,-99.99,,,-99.99,327.119995,,2013-05-11 23:00:00,
2013-05-11 19:42:00,47.0,33.0,-100.00,NNW,337,12.0,-999.0,58,-99.99,,,-99.99,327.119995,,2013-05-11 23:42:00,
2013-05-11 19:52:00,47.0,33.0,-100.00,NNW,337,12.0,-999.0,58,-99.99,,,-99.99,327.119995,,2013-05-11 23:52:00,
2013-05-11 21:00:00,44.0,31.0,-100.00,NW,315,8.0,-999.0,59,-99.99,,,-99.99,29.000000,,2013-05-12 01:00:00,
2013-05-11 21:42:00,44.0,31.0,-100.00,NW,315,8.0,-999.0,59,-99.99,,,-99.99,29.000000,,2013-05-12 01:42:00,
2013-05-11 21:52:00,44.0,31.0,-100.00,NW,315,8.0,-999.0,59,-99.99,,,-99.99,29.000000,,2013-05-12 01:52:00,
2013-05-11 22:00:00,41.0,32.0,-100.00,NW,315,5.0,-999.0,71,-99.99,,,-99.99,0.000000,,2013-05-12 02:00:00,
2013-05-11 22:42:00,41.0,32.0,-100.00,NW,315,5.0,-999.0,71,-99.99,,,-99.99,0.000000,,2013-05-12 02:42:00,
2013-05-11 22:52:00,41.0,32.0,-100.00,NW,315,5.0,-999.0,71,-99.99,,,-99.99,0.000000,,2013-05-12 02:52:00,
2013-05-11 23:00:00,-999.0,-99.9,-100.00,West,270,2.0,-999.0,80,-99.99,,,-99.99,0.000000,,2013-05-12 03:00:00,
2013-05-11 23:43:00,38.0,33.0,-100.00,West,270,2.0,-999.0,80,-99.99,,,-99.99,0.000000,,2013-05-12 03:43:00,
2013-05-11 23:53:00,38.0,33.0,-100.00,West,270,2.0,-999.0,80,-99.99,,,-99.99,0.000000,,2013-05-12 03:53:00,